Content
SEND FEEDBACK

Daily
Averages
Monthly
Summary
Mexico

PLAYA DEL CARMEN, QUINTANA ROO


Home > North America > Mexico > Quintana Roo
Elevation: 30 feet     Latitude: 20 38N     Longitude: 087 04W

WEATHER
 
SELECT A DAY
Number of Records: 204,356;   Date Range: 2/21/06 - 11/25/14
 
SHARE

PRINT THIS DATA

[ ← Previous Day ]
WEATHER ALMANAC - JULY 30, 2014
[ Next Day → ]
[ °C ]   °F
Weather ElementAverageHighLow
Temperature84.4 °F93.2 °F (12:15 pm)75.2 °F (10:55 pm)
Dewpoint41.8 °F75.2 °F (11:35 am) (7:00 pm)
Humidity48 %79 % (3:15 pm)36 % (2:15 pm)
Barometer29.99 in30.02 in (2:55 pm)29.95 in (3:55 pm)
Wind Speed2.1 mph9.2 mph (12:55 pm)
Weather ElementAverage
Visibility8.8 mi
Wind DirectionESE (121.7 °)

Weather ElementTotal
Precipitation---
Cooling Degree Days19.2 (Base 65)
Growing Degree Days34.2 (Base 50)
Averaged from 69 records on July 30, 2014
WEATHER CONDITIONS BREAKOUT
WIND DIRECTION BREAKOUT
WEATHER BY HOUR - JULY 30, 2014
[ °C ]   °F
Local TimeTemperatureDewpointHumidityBarometerVisibilityWind DirectionWind SpeedGust SpeedPrecipitationEventsConditions
12:15 AM77.0 °F0.0 °F29.99 in7.0 miCalmClear
12:35 AM77.0 °F0.0 °F29.99 in7.0 miCalmClear
12:55 AM78.8 °F0.0 °F29.99 in7.0 miCalmMostly Cloudy
1:35 AM78.8 °F0.0 °F29.99 in7.0 miCalmMostly Cloudy
1:55 AM78.8 °F0.0 °F29.99 in7.0 miCalmScattered Clouds
2:15 AM78.8 °F0.0 °F29.99 in7.0 miCalmMostly Cloudy
2:35 AM78.8 °F0.0 °F29.98 in7.0 miCalmOvercast
2:55 AM78.8 °F0.0 °F29.98 in7.0 miCalmMostly Cloudy
3:15 AM78.8 °F0.0 °F29.97 in7.0 miCalmScattered Clouds
3:35 AM77.0 °F0.0 °F29.97 in5.0 miCalmHaze
3:55 AM78.8 °F0.0 °F29.97 in5.0 miCalmHaze
4:15 AM78.8 °F0.0 °F29.97 in5.0 miCalmHaze
4:35 AM77.0 °F0.0 °F29.98 in5.0 miCalmHaze
4:55 AM77.0 °F0.0 °F29.98 in7.0 miSouth (190°)3.5 mphClear
5:15 AM77.0 °F0.0 °F29.97 in7.0 miCalmClear
5:35 AM77.0 °F0.0 °F29.97 in7.0 miCalmClear
5:55 AM77.0 °F0.0 °F29.98 in7.0 miCalmClear
6:15 AM75.2 °F0.0 °F29.98 in7.0 miCalmClear
6:35 AM75.2 °F0.0 °F29.99 in3.0 miNorthClear
6:55 AM75.2 °F0.0 °F29.99 in4.0 miNorthHaze
7:15 AM75.2 °F0.0 °F29.99 in5.0 miCalmHaze
7:35 AM77.0 °F0.0 °F29.99 in7.0 miCalmClear
7:55 AM77.0 °F0.0 °F30.00 in10.0 miCalmClear
8:15 AM78.8 °F0.0 °F30.00 in10.0 miCalmClear
8:35 AM80.6 °F0.0 °F30.01 in10.0 miCalmClear
8:55 AM82.4 °F75.2 °F79 %30.01 in10.0 miCalmClear
9:15 AM84.2 °F69.8 °F62 %30.01 in10.0 miCalmClear
9:35 AM84.2 °F68.0 °F58 %30.01 in10.0 miCalmClear
9:55 AM86.0 °F69.8 °F58 %30.02 in10.0 miCalmClear
10:15 AM86.0 °F69.8 °F58 %30.02 in10.0 miCalmClear
10:35 AM87.8 °F66.2 °F49 %30.02 in10.0 miCalmClear
10:55 AM87.8 °F64.4 °F46 %30.02 in10.0 miCalmClear
11:15 AM87.8 °F62.6 °F43 %30.02 in10.0 miENE (60°)3.5 mphClear
11:35 AM89.6 °F62.6 °F40 %30.02 in10.0 miWNW (300°)3.5 mphClear
11:55 AM89.6 °F62.6 °F40 %30.02 in10.0 miCalmClear
12:15 PM89.6 °F64.4 °F43 %30.02 in10.0 miNorth (10°)3.5 mphClear
12:35 PM89.6 °F64.4 °F43 %30.02 in10.0 miNorth (360°)3.5 mphClear
12:55 PM89.6 °F64.4 °F43 %30.01 in10.0 miNNW (340°)4.6 mphScattered Clouds
1:15 PM91.4 °F62.6 °F38 %30.01 in10.0 miCalmScattered Clouds
1:35 PM91.4 °F64.4 °F41 %30.00 in10.0 miCalmClear
1:55 PM91.4 °F64.4 °F41 %30.00 in10.0 miCalmClear
2:15 PM91.4 °F64.4 °F41 %29.99 in10.0 miNorth (350°)4.6 mphScattered Clouds
2:35 PM91.4 °F64.4 °F41 %29.99 in10.0 miNW (320°)9.2 mphScattered Clouds
2:55 PM91.4 °F64.4 °F41 %29.98 in10.0 miNorth (10°)3.5 mphScattered Clouds
3:15 PM91.4 °F64.4 °F41 %29.97 in10.0 miNorth (350°)3.5 mphScattered Clouds
3:35 PM93.2 °F62.6 °F36 %29.97 in10.0 miNorth (350°)4.6 mphScattered Clouds
3:55 PM93.2 °F64.4 °F38 %29.96 in10.0 miNNW (330°)5.8 mphScattered Clouds
4:15 PM93.2 °F66.2 °F41 %29.96 in10.0 miNorth (360°)5.8 mphScattered Clouds
4:35 PM93.2 °F64.4 °F38 %29.95 in10.0 miNorth (360°)5.8 mphScattered Clouds
4:55 PM93.2 °F64.4 °F38 %29.95 in10.0 miNNW (340°)3.5 mphScattered Clouds
5:15 PM93.2 °F64.4 °F38 %29.95 in10.0 miNNW (340°)5.8 mphScattered Clouds
5:35 PM93.2 °F66.2 °F41 %29.95 in10.0 miNorth (360°)6.9 mphScattered Clouds
5:55 PM93.2 °F64.4 °F38 %29.95 in10.0 miNorth (350°)3.5 mphClear
6:15 PM91.4 °F64.4 °F41 %29.95 in10.0 miNNW (340°)4.6 mphScattered Clouds
6:35 PM91.4 °F64.4 °F41 %29.96 in10.0 miNNW (330°)6.9 mphMostly Cloudy
6:55 PM91.4 °F64.4 °F41 %29.96 in10.0 miNW (320°)6.9 mphMostly Cloudy
7:15 PM89.6 °F64.4 °F43 %29.96 in10.0 miNNW (330°)6.9 mphMostly Cloudy
7:35 PM89.6 °F64.4 °F43 %29.96 in10.0 miNNW (330°)8.1 mphScattered Clouds
7:55 PM87.8 °F66.2 °F49 %29.97 in10.0 miNNW (340°)4.6 mphScattered Clouds
8:15 PM86.0 °F66.2 °F51 %29.98 in10.0 miNNW (330°)4.6 mphScattered Clouds
8:35 PM84.2 °F66.2 °F55 %29.99 in10.0 miNNW (330°)3.5 mphClear
8:55 PM84.2 °F66.2 °F55 %29.99 in10.0 miNNW (330°)5.8 mphClear
9:15 PM84.2 °F66.2 °F55 %30.00 in10.0 miCalmClear
9:35 PM82.4 °F66.2 °F58 %30.00 in10.0 miCalmClear
9:55 PM82.4 °F66.2 °F58 %30.01 in10.0 miNNW (340°)3.5 mphScattered Clouds
10:35 PM80.6 °F66.2 °F61 %30.01 in10.0 miCalmScattered Clouds
11:15 PM78.8 °F66.2 °F65 %30.00 in10.0 miCalmClear
11:35 PM78.8 °F68.0 °F69 %30.01 in10.0 miCalmClear
11:55 PM78.8 °F69.8 °F74 %30.01 in10.0 miCalmClear
Hourly data recorded from KPCM, located miles away from Playa del Carmen, Quintana Roo







STORIES FROM OUR PARTNERS